This demonstration page uses our WeatherBlox Daily Observations layout. Learn more.

Hourly Observations for July 12, 2015

Temp ( °F °C ) Dew Point ( °F °C ) Humidity (%) Winds ( mph kmh ) Pressure ( in mb ) Visibility ( mi km ) Precip ( " mm )
12:15 am 00:15 Clear 74 23.4 70 20.9 86 86 Calm 29.83 1010 10 16.0934 0 0
12:35 am 00:35 Clear 73 22.7 69 20.7 89 89 SE 5 7 29.83 1010 10 16.0934 0 0
12:55 am 00:55 Clear 73 23 69 20.5 86 86 S 3 6 29.83 1010 10 16.0934 0 0
1:15 am 01:15 Clear 73 22.6 68 20 85 85 S 7 11 29.83 1010 10 16.0934 0 0
1:35 am 01:35 Clear 74 23.3 67 19.6 80 80 S 7 11 29.8 1009 10 16.0934 0 0
1:55 am 01:55 Clear 73 22.7 66 18.7 78 78 SSW 7 11 29.8 1009 10 16.0934 0 0
2:15 am 02:15 Clear 73 22.5 64 18 76 76 SSW 5 7 29.8 1009 10 16.0934 0 0
2:35 am 02:35 Clear 71 21.4 64 18 81 81 S 6 9 29.83 1010 10 16.0934 0 0
2:55 am 02:55 Clear 72 22.2 64 18 77 77 SSW 8 13 29.83 1010 10 16.0934 0 0
3:15 am 03:15 Clear 71 21.7 64 18 80 80 S 7 11 29.83 1010 10 16.0934 0 0
3:35 am 03:35 Clear 70 21.3 64 18 82 82 SW 3 6 29.83 1010 10 16.0934 0 0
3:55 am 03:55 Clear 70 21.3 64 17.6 80 80 SSW 7 11 29.83 1010 10 16.0934 0 0
4:15 am 04:15 Clear 71 21.5 64 17.8 80 80 SSW 5 7 29.83 1010 10 16.0934 0 0
4:35 am 04:35 Clear 70 21.1 64 17.9 82 82 Calm 29.83 1010 10 16.0934 0 0
4:55 am 04:55 Clear 69 20.6 63 17.4 82 82 Calm 29.83 1010 10 16.0934 0 0
5:15 am 05:15 Clear 68 20.2 64 18 87 87 SSW 3 6 29.83 1010 10 16.0934 0 0
5:35 am 05:35 Clear 66 19 63 17.1 89 89 Calm 29.83 1010 10 16.0934 0 0
5:55 am 05:55 Clear 65 18.2 62 16.5 90 90 Calm 29.85 1011 10 16.0934 0 0
6:15 am 06:15 Clear 65 18.2 62 16.9 92 92 Calm 29.85 1011 10 16.0934 0 0
6:35 am 06:35 Sunny 64 18 62 16.7 92 92 Calm 29.88 1012 10 16.0934 0 0
6:55 am 06:55 Sunny 65 18.5 63 17.4 93 93 Calm 29.85 1011 10 16.0934 0 0
7:15 am 07:15 Sunny with Mist and Fog 66 18.9 64 17.7 93 93 NW 7 11 29.85 1011 5 8.0467 0 0
7:35 am 07:35 Sunny with Mist and Fog 69 20.5 67 19.4 93 93 NW 3 6 29.85 1011 4 6.43736 0 0
7:55 am 07:55 Sunny with Mist and Fog 71 21.6 68 20 91 91 Calm 29.85 1011 4 6.43736 0 0
8:15 am 08:15 Sunny with Mist and Fog 73 22.6 69 20.6 89 89 Calm 29.83 1010 5 8.0467 0 0
8:35 am 08:35 Sunny with Mist and Fog 74 23.2 70 21 87 87 NNE 3 6 29.83 1010 5 8.0467 0 0
8:55 am 08:55 Sunny 75 24 71 21.4 85 85 Calm 29.83 1010 7 11.26538 0 0
9:15 am 09:15 Sunny 76 24.5 71 21.6 84 84 Calm 29.85 1011 7 11.26538 0 0
9:35 am 09:35 Sunny 79 25.9 72 22.3 81 81 Calm 29.85 1011 10 16.0934 0 0
9:55 am 09:55 Sunny 80 26.6 71 21.7 75 75 NNE 5 7 29.83 1010 10 16.0934 0 0
10:15 am 10:15 Sunny 81 27.3 71 21.8 72 72 N 3 6 29.8 1009 10 16.0934 0 0
10:35 am 10:35 Sunny 82 28 72 22.1 70 70 Calm 29.8 1009 10 16.0934 0 0
10:55 am 10:55 Sunny 83 28.6 71 21.7 66 66 ENE 3 6 29.8 1009 10 16.0934 0 0
11:15 am 11:15 Sunny 85 29.2 71 21.7 64 64 Calm 29.8 1009 10 16.0934 0 0
11:35 am 11:35 Sunny 86 29.8 73 22.7 66 66 Calm 29.77 1008 10 16.0934 0 0
11:55 am 11:55 Sunny 87 30.3 72 22.3 62 62 NW 3 6 29.77 1008 10 16.0934 0 0
12:15 pm 12:15 Sunny 87 30.4 72 22.4 62 62 Calm 29.77 1008 10 16.0934 0 0
12:35 pm 12:35 Sunny 88 30.9 73 22.5 61 61 Calm 29.77 1008 10 16.0934 0 0
12:55 pm 12:55 Sunny 89 31.4 71 21.6 56 56 Calm 29.77 1008 10 16.0934 0 0
1:15 pm 13:15 Sunny 89 31.9 65 18.2 44 44 Calm 29.77 1008 10 16.0934 0 0
1:35 pm 13:35 Sunny 90 32.1 68 20 49 49 NW 3 6 29.77 1008 10 16.0934 0 0
1:55 pm 13:55 Sunny 91 32.5 69 20.3 49 49 NW 3 6 29.77 1008 10 16.0934 0 0
2:15 pm 14:15 Sunny 91 33 70 21 49 49 Calm 29.77 1008 10 16.0934 0 0
2:35 pm 14:35 Sunny 91 33 67 19.7 45 45 Calm 29.77 1008 10 16.0934 0 0
2:55 pm 14:55 Sunny 92 33.1 67 19.2 44 44 Calm 29.77 1008 10 16.0934 0 0
3:15 pm 15:15 Sunny 92 33.5 64 17.9 39 39 WSW 3 6 29.74 1007 10 16.0934 0 0
3:35 pm 15:35 Sunny 93 33.8 63 17.1 37 37 Calm 29.71 1006 10 16.0934 0 0
3:55 pm 15:55 Sunny 93 34 63 17 36 36 Calm 29.71 1006 10 16.0934 0 0
4:15 pm 16:15 Sunny 93 34 61 16.3 35 35 Calm 29.71 1006 10 16.0934 0 0
4:35 pm 16:35 Sunny 93 33.7 63 17.4 38 38 Calm 29.71 1006 10 16.0934 0 0
4:55 pm 16:55 Sunny 93 34 66 18.7 40 40 S 6 9 29.71 1006 10 16.0934 0 0
5:15 pm 17:15 Sunny 93 33.9 64 18 39 39 SSW 7 11 29.71 1006 10 16.0934 0 0
5:35 pm 17:35 Sunny 93 33.8 66 19 42 42 SSW 5 7 29.71 1006 10 16.0934 0 0
5:55 pm 17:55 Sunny 92 33.3 69 20.6 47 47 S 7 11 29.74 1007 10 16.0934 0 0
6:15 pm 18:15 Sunny 92 33.2 68 20.2 46 46 S 6 9 29.74 1007 10 16.0934 0 0
6:35 pm 18:35 Sunny 92 33.3 69 20.3 46 46 SSE 3 6 29.71 1006 10 16.0934 0 0
6:55 pm 18:55 Sunny 91 32.7 71 21.4 51 51 SE 3 6 29.71 1006 10 16.0934 0 0
7:15 pm 19:15 Sunny 91 32.5 70 20.9 50 50 S 5 7 29.71 1006 10 16.0934 0 0
7:35 pm 19:35 Sunny 91 32.5 68 20.2 48 48 Calm 29.71 1006 10 16.0934 0 0
7:55 pm 19:55 Sunny 89 31.7 72 22.3 57 57 Calm 29.71 1006 10 16.0934 0 0
8:15 pm 20:15 Sunny 88 31.3 72 22.3 59 59 Calm 29.71 1006 10 16.0934 0 0
8:35 pm 20:35 Sunny 88 30.9 73 22.6 61 61 Calm 29.71 1006 10 16.0934 0 0
8:55 pm 20:55 Sunny 85 29.2 76 24.2 74 74 SE 5 7 29.74 1007 10 16.0934 0 0
9:15 pm 21:15 Clear 84 29.1 71 21.6 64 64 SSE 7 11 29.74 1007 10 16.0934 0 0
9:35 pm 21:35 Clear 83 28.2 72 22 69 69 S 5 7 29.74 1007 10 16.0934 0 0
10:15 pm 22:15 Clear 78 25.5 72 22.2 82 82 SE 7 11 29.74 1007 10 16.0934 0 0
10:35 pm 22:35 Clear 81 27 71 21.5 72 72 SSE 6 9 29.74 1007 10 16.0934 0 0
10:55 pm 22:55 Clear 79 26.3 70 21.1 73 73 SSE 7 11 29.74 1007 10 16.0934 0 0
11:15 pm 23:15 Clear 78 25.6 70 21.1 76 76 SSE 6 9 29.74 1007 10 16.0934 0 0
11:35 pm 23:35 Clear 77 24.8 69 20.8 79 79 S 6 9 29.77 1008 10 16.0934 0 0
11:55 pm 23:55 Clear 77 25.2 68 20.2 74 74 S 7 11 29.77 1008 10 16.0934 0 0

Powered by AerisWeather